OK1UOJ Weather Reports


time (UTC)temp
C
wind
direction
speed
KPH
gust
KPH
rain 1hr
cm
rain 24hr
cm
rain mn
cm
humidity
%
barometer
mb
20260502200139 12 135 6.4 8.0 0.00 0.00 0.00 99 1021.0
20260502195707 12 135 6.4 8.0 0.00 0.00 0.00 10 0.1
20260502195702 12 135 6.4 8.0 0.00 0.00 0.00 10 1021.1
20260502195230 12 135 6.4 8.0 0.00 0.00 0.00 10 1021.1
20260502195224 12 135 6.4 8.0 0.00 0.00 0.00 10 1021.1
20260502194747 12 135 6.4 8.0 0.00 0.00 0.00 99 1021.1
20260502194309 12 135 6.4 8.0 0.00 0.00 0.00 97 1021.1
20260502193832 12 135 6.4 8.0 0.00 0.00 0.00 98 1021.1
20260502193400 12 135 6.4 8.0 0.00 0.00 0.00 10 1021.1
20260502193355 12 135 6.4 8.0 0.00 0.00 0.00 10 1021.1
20260502192923 11 132 8.0 8.0 0.00 0.00 0.00 10 1021.1
20260502192917 11 132 8.0 8.0 0.00 0.00 0.00 10 1021.1
20260502192445 11 135 4.8 6.4 0.00 0.00 0.00 10 1021.0
20260502192440 11 135 4.8 6.4 0.00 0.00 0.00 10 1021.0
20260502191525 10 136 3.2 4.8 0.00 0.00 0.00 10 1021.0
20260502191048 10 136 3.2 4.8 0.00 0.00 0.00 10 1021.1
20260502190616 10 135 3.2 3.2 0.00 0.00 0.00 10 1021.1
20260502190611 10 135 3.2 3.2 0.00 0.00 0.00 10 1021.1
20260502185701 11 135 3.2 3.2 0.00 0.00 0.00 10 1021.1
20260502185656 11 135 3.2 3.2 0.00 0.00 0.00 10 1021.1
20260502185224 11 135 3.2 3.2 0.00 0.00 0.00 10 1021.0
20260502185219 11 135 3.2 3.2 0.00 0.00 0.00 10 1021.0
20260502184747 11 138 3.2 3.2 0.00 0.00 0.00 10 1021.1
20260502184741 11 138 3.2 3.2 0.00 0.00 0.00 10 1021.1
20260502184305 11 135 1.6 3.2 0.00 0.00 0.00 10 1021.0
20260502183832 12 135 1.6 3.2 0.00 0.00 0.00 10 1021.0
20260502183827 12 135 1.6 3.2 0.00 0.00 0.00 10 1021.0
20260502182440 13 132 1.6 3.2 0.00 0.00 0.00 10 1020.9
20260502182434 13 132 1.6 3.2 0.00 0.00 0.00 10 1020.9
20260502181520 14 135 3.2 3.2 0.00 0.00 0.00 10 1020.8
20260502180609 15 135 3.2 3.2 0.00 0.00 0.00
20260502180604 15 135 3.2 3.2 0.00 0.00 0.00 99 1020.8
20260502180132 -17 120 3.2 0.0 0.00 0.00 0.00 94 1020.8
20260502180127 16 120 3.2 3.2 0.00 0.00 0.00 94 1020.8
20260502170115 21 135 1.6 3.2 0.00 0.00 0.00 35 1021.0
20260502164243 21 135 3.2 4.8 0.00 0.00 0.00 31 1021.2
20260502161926 22 135 1.6 4.8 0.00 0.00 0.00 27 1021.5
20260502161453 22 138 4.8 6.4 0.00 0.00 0.00 29 1021.6
20260502161448 22 138 4.8 6.4 0.00 0.00 0.00 29 1021.6
20260502161010 22 144 4.8 6.4 0.00 0.00 0.00 27 1021.7
20260502160537 22 150 3.2 3.2 0.00 0.00 0.00 29 1021.7
20260502160532 22 150 3.2 3.2 0.00 0.00 0.00 29 1021.7
20260502151914 25 123 1.6 3.2 0.00 0.00 0.00 25 1022.3
20260502151908 25 123 1.6 3.2 0.00 0.00 0.00 25 1022.3
20260502151435 25 134 1.6 3.2 0.00 0.00 0.00 24 1022.3
20260502130429 23 128 4.8 8.0 0.00 0.00 0.00 27 1023.8
20260502130423 23 128 4.8 8.0 0.00 0.00 0.00 27 1023.8
20260502123635 24 335 3.2 4.8 0.00 0.00 0.00 29 1024.2
20260502123156 23 316 3.2 6.4 0.00 0.00 0.00 30 1024.2
20260502123151 23 316 3.2 6.4 0.00 0.00 0.00 30 1024.2
20260502122717 23 139 4.8 11.3 0.00 0.00 0.00 29 1024.3
20260502122712 23 139 4.8 11.3 0.00 0.00 0.00 29 1024.3
20260502122238 23 135 6.4 12.9 0.00 0.00 0.00 26 1024.3
20260502122234 23 135 6.4 12.9 0.00 0.00 0.00 26 1024.3
20260502121759 24 63 3.2 4.8 0.00 0.00 0.00 27 1024.4
20260502121754 24 63 3.2 4.8 0.00 0.00 0.00 27 1024.4
20260502121320 23 174 3.2 6.4 0.00 0.00 0.00 28 1024.5
20260502121315 23 174 3.2 6.4 0.00 0.00 0.00 28 1024.5
20260502120841 24 57 3.2 4.8 0.00 0.00 0.00 28 1024.5
20260502120836 24 57 3.2 4.8 0.00 0.00 0.00 28 1024.5
20260502115923 23 160 3.2 4.8 0.00 0.00 0.00 29 1024.7
20260502115918 23 160 3.2 4.8 0.00 0.00 0.00 29 1024.7
20260502115445 23 160 3.2 6.4 0.00 0.00 0.00 30 1024.8
20260502115440 23 160 3.2 6.4 0.00 0.00 0.00 30 1024.8
20260502114043 23 168 3.2 4.8 0.00 0.00 0.00 33 1025.0
20260502113130 23 151 3.2 6.4 0.00 0.00 0.00 33 1025.2
20260502113125 23 151 3.2 6.4 0.00 0.00 0.00 33 1025.2
20260502112651 22 114 3.2 0.0 0.00 0.00 0.00 33 1025.2
20260502112646 22 114 3.2 8.0 0.00 0.00 0.00 33 1025.2
20260502111729 22 145 4.8 8.0 0.00 0.00 0.00 34 1025.2
20260502111250 22 132 4.8 11.3 0.00 0.00 0.00 31 1025.4
20260502110338 22 156 1.6 4.8 0.00 0.00 0.00 34 1025.4
20260502110333 22 156 1.6 4.8 0.00 0.00 0.00 34 1025.4
20260502105859 22 137 4.8 8.0 0.00 0.00 0.00 32 1025.5
20260502105854 22 137 4.8 8.0 0.00 0.00 0.00 32 1025.5
20260502105420 22 147 6.4 9.7 0.00 0.00 0.00 33 1025.5
20260502105415 22 147 6.4 9.7 0.00 0.00 0.00 33 1025.5
20260502104936 22 144 6.4 11.3 0.00 0.00 0.00 34 1025.6
20260502104503 22 142 4.8 8.0 0.00 0.00 0.00 34 1025.6
20260502104458 22 142 4.8 8.0 0.00 0.00 0.00 34 1025.6
20260502103545 22 180 3.2 4.8 0.00 0.00 0.00 36 1025.8
20260502103540 22 180 3.2 4.8 0.00 0.00 0.00 36 1025.8
20260502103106 21 136 6.4 8.0 0.00 0.00 0.00 34 1025.8
20260502103102 21 136 6.4 8.0 0.00 0.00 0.00 34 1025.8
20260502102628 21 129 4.8 8.0 0.00 0.00 0.00 35 1025.9
20260502102623 21 129 4.8 8.0 0.00 0.00 0.00 35 1025.9
20260502102149 21 144 4.8 9.7 0.00 0.00 0.00 35 1026.0
20260502102144 21 144 4.8 9.7 0.00 0.00 0.00 35 1026.0
20260502101718 21 151 6.4 11.3 0.00 0.00 0.00 36 1026.0
20260502101711 21 151 6.4 11.3 0.00 0.00 0.00 36 1026.0
20260502101706 21 151 6.4 11.3 0.00 0.00 0.00 36 1026.0
20260502101227 22 151 3.2 4.8 0.00 0.00 0.00 36 1026.1
20260502100753 22 347 3.2 3.2 0.00 0.00 0.00 35 1026.1
20260502100748 22 347 3.2 3.2 0.00 0.00 0.00 35 1026.1
20260502100309 21 150 3.2 6.4 0.00 0.00 0.00 38 1026.2
20260502091208 21 152 3.2 4.8 0.00 0.00 0.00 41 1026.8
20260502091203 21 152 3.2 4.8 0.00 0.00 0.00 41 1026.8
20260502090725 21 145 4.8 6.4 0.00 0.00 0.00 42 1026.8
20260502090247 21 128 3.2 8.0 0.00 0.00 0.00 44 1026.9
20260502070644 15 326 3.2 3.2 0.00 0.00 0.00 10 1027.5
20260502065255 16 61 1.6 3.2 0.00 0.00 0.00 10 1027.4
20260502065250 16 61 1.6 3.2 0.00 0.00 0.00 10 1027.4
20260502064812 16 61 1.6 3.2 0.00 0.00 0.00 10 1027.5
20260502063857 14 340 1.6 3.2 0.00 0.00 0.00 10 1027.5
20260502063424 14 339 3.2 3.2 0.00 0.00 0.00 10 1027.6
20260502063419 14 339 3.2 3.2 0.00 0.00 0.00 10 1027.6
20260502062026 13 141 1.6 3.2 0.00 0.00 0.00 10 1027.6
20260502061554 13 135 1.6 3.2 0.00 0.00 0.00 10 1027.5
20260502061549 13 135 1.6 3.2 0.00 0.00 0.00 10 1027.5
20260502060157 11 322 0.0 1.6 0.00 0.00 0.00 10 1027.6
20260502055724 11 0 0.0 1.6 0.00 0.00 0.00
20260502055719 11 0 0.0 1.6 0.00 0.00 0.00 10 1027.6
20260502055247 11 357 1.6 1.6 0.00 0.00 0.00 10 1027.6
20260502055242 11 357 1.6 1.6 0.00 0.00 0.00 10 1027.6
20260502054805 10 333 1.6 1.6 0.00 0.00 0.00 10 1027.6
20260502053850 10 318 1.6 3.2 0.00 0.00 0.00 10 1027.6
20260502053418 10 321 1.6 3.2 0.00 0.00 0.00 10 1027.7
20260502053413 10 321 1.6 3.2 0.00 0.00 0.00 10 1027.7
20260502052941 10 353 1.6 3.2 0.00 0.00 0.00 10 1027.6
20260502052936 10 353 1.6 3.2 0.00 0.00 0.00 10 1027.6
20260502052504 9 184 1.6 1.6 0.00 0.00 0.00 10 1027.7
20260502052458 9 184 1.6 1.6 0.00 0.00 0.00 10 1027.7
20260502051549 8 135 0.0 0.0 0.00 0.00 0.00 10 1027.7
20260502051544 8 135 0.0 0.0 0.00 0.00 0.00 10 1027.7
20260502051112 8 135 0.0 0.0 0.00 0.00 0.00 10 1027.7
20260502051107 8 135 0.0 0.0 0.00 0.00 0.00 10 1027.7
20260502045716 6 135 1.6 3.2 0.00 0.00 0.00 10 1027.6
20260502045243 6 135 1.6 1.6 0.00 0.00 0.00 10 1027.7
20260502045238 6 135 1.6 1.6 0.00 0.00 0.00 10 1027.7
20260502043852 5 187 1.6 3.2 0.00 0.00 0.00 10 1027.6
20260502043847 5 187 1.6 3.2 0.00 0.00 0.00 10 1027.6
20260502043415 5 145 1.6 3.2 0.00 0.00 0.00 10 1027.5
20260502043410 5 145 1.6 3.2 0.00 0.00 0.00 10 1027.5
20260502042938 4 135 3.2 3.2 0.00 0.00 0.00 10 1027.6
20260502042933 4 135 3.2 3.2 0.00 0.00 0.00 10 1027.6
20260502042734 3 135 1.6 3.2 0.00 0.00 0.00 10 1027.6
20260502042501 3 135 1.6 3.2 0.00 0.00 0.00 10 1027.6
20260502042456 3 135 1.6 3.2 0.00 0.00 0.00 10 1027.6
20260502042057 3 135 3.2 4.8 0.00 0.00 0.00 10 1027.5
20260502042019 3 135 3.2 4.8 0.00 0.00 0.00 10 1027.5
20260502041650 3 135 3.2 3.2 0.00 0.00 0.00 10 1.0
20260502041547 3 135 3.2 3.2 0.00 0.00 0.00 10 1027.5
20260502041542 3 135 3.2 3.2 0.00 0.00 0.00 10 1027.5
20260502041540 2 135 1.6 1.6 0.00 0.00 0.00 10 1027.5
20260502041109 2 135 1.6 1.6 0.00 0.00 0.00 10 1027.5
20260502041105 2 135 1.6 1.6 0.00 0.00 0.00 10 1027.5
20260502040632 2 135 1.6 3.2 0.00 0.00 0.00 10 1027.5
20260502040627 2 135 1.6 3.2 0.00 0.00 0.00 10 1027.5
20260502040151 2 138 1.6 3.2 0.00 0.00 0.00 10 1027.5
20260502035713 2 138 1.6 3.2 0.00 0.00 0.00 10 1027.4
20260502035236 2 135 1.6 3.2 0.00 0.00 0.00 10 1027.5
20260502034851 1 136 3.2 3.2 0.00 0.00 0.00 10 1027.4
20260502034804 1 136 3.2 3.2 0.00 0.00 0.00 10 1027.4
20260502034759 1 136 3.2 3.2 0.00 0.00 0.00 10 1027.4
20260502034322 1 136 1.6 3.2 0.00 0.00 0.00 10 1027.5
20260502033851 1 135 1.6 3.2 0.00 0.00 0.00 10 1027.4
20260502033845 1 135 1.6 3.2 0.00 0.00 0.00 10 1027.4
20260502033408 1 138 3.2 3.2 0.00 0.00 0.00 10 1027.5
20260502032459 2 138 1.6 3.2 0.00 0.00 0.00 10 1027.5
20260502032454 2 138 1.6 3.2 0.00 0.00 0.00 10 1027.5
20260502031545 2 147 1.6 3.2 0.00 0.00 0.00 10 1027.5
20260502031540 2 147 1.6 3.2 0.00 0.00 0.00 10 1027.5
20260502030626 2 135 1.6 3.2 0.00 0.00 0.00 10 1027.5
20260502025717 2 147 3.2 3.2 0.00 0.00 0.00 10 1027.5
20260502025712 2 147 3.2 3.2 0.00 0.00 0.00 10 1027.5
20260502025240 2 135 1.6 3.2 0.00 0.00 0.00 10 1027.5
20260502025235 2 135 1.6 3.2 0.00 0.00 0.00 10 1027.5
20260502023411 2 135 1.6 3.2 0.00 0.00 0.00 10 1027.6
20260502023407 2 135 1.6 3.2 0.00 0.00 0.00 10 1027.6
20260502022935 2 135 1.6 3.2 0.00 0.00 0.00 10 1027.6
20260502022930 2 135 1.6 3.2 0.00 0.00 0.00 10 1027.6
20260502022458 2 135 3.2 3.2 0.00 0.00 0.00 10 1027.6
20260502022452 2 135 3.2 3.2 0.00 0.00 0.00 10 1027.6
20260502022016 2 135 3.2 3.2 0.00 0.00 0.00 10 1027.6
20260502020629 3 131 4.8 4.8 0.00 0.00 0.00 10 1027.7
20260502020624 3 131 4.8 4.8 0.00 0.00 0.00 10 1027.7
20260502015715 3 135 3.2 3.2 0.00 0.00 0.00 10 1027.6
20260502015710 3 135 3.2 3.2 0.00 0.00 0.00 10 1027.6
20260502015238 3 135 1.6 3.2 0.00 0.00 0.00 10 1027.7
20260502015233 3 135 1.6 3.2 0.00 0.00 0.00 10 1027.7
20260502013405 3 135 3.2 3.2 0.00 0.00 0.00 10 1027.7
20260502012933 3 135 1.6 3.2 0.00 0.00 0.00 10 1027.7
20260502012928 3 135 1.6 3.2 0.00 0.00 0.00 10 1027.7
20260502012014 3 123 3.2 3.2 0.00 0.00 0.00 10 1027.7
20260502011100 2 135 1.6 3.2 0.00 0.00 0.00 10 1027.7
20260502010628 2 135 1.6 3.2 0.00 0.00 0.00 10 1027.7
20260502010622 2 135 1.6 3.2 0.00 0.00 0.00 10 1027.7
20260502005708 2 135 1.6 3.2 0.00 0.00 0.00 10 1027.7
20260502005237 2 135 1.6 3.2 0.00 0.00 0.00 10 1027.7
20260502005231 2 135 1.6 3.2 0.00 0.00 0.00 10 1027.7
20260502004754 2 138 3.2 3.2 0.00 0.00 0.00 10 1027.7
20260502004322 3 135 1.6 3.2 0.00 0.00 0.00 10 1027.7
20260502004317 3 135 1.6 3.2 0.00 0.00 0.00 10 1027.7
20260502003840 3 135 1.6 3.2 0.00 0.00 0.00 10 1027.8
20260502002454 3 135 0.0 0.0 0.00 0.00 0.00 10 1027.8
20260502002449 3 135 0.0 0.0 0.00 0.00 0.00 10 1027.8
20260502002012 4 135 0.0 0.0 0.00 0.00 0.00 10 1027.8
20260502001535 4 135 1.6 1.6 0.00 0.00 0.00 10 1027.8
20260502001103 4 135 1.6 1.6 0.00 0.00 0.00 10 1027.8
20260502001058 4 135 1.6 1.6 0.00 0.00 0.00 10 1027.8
20260502000626 4 135 1.6 1.6 0.00 0.00 0.00 10 1027.7
20260502000621 4 135 1.6 1.6 0.00 0.00 0.00 10 1027.7
20260502000149 4 135 1.6 3.2 0.00 0.00 0.00 10 1027.7
20260502000144 4 135 1.6 3.2 0.00 0.00 0.00 10 1027.7
20260501235707 4 135 1.6 3.2 0.00 0.00 0.00 10 1027.7
20260501235235 5 164 1.6 3.2 0.00 0.00 0.00 10 1027.8
20260501235229 5 164 1.6 3.2 0.00 0.00 0.00 10 1027.8
20260501234752 5 179 1.6 3.2 0.00 0.00 0.00 10 1027.7
20260501234320 5 135 1.6 3.2 0.00 0.00 0.00 10 1.0
20260501234315 5 135 1.6 3.2 0.00 0.00 0.00 10 1027.7
20260501233843 6 135 3.2 3.2 0.00 0.00 0.00 10 1027.7
20260501233838 6 135 3.2 3.2 0.00 0.00 0.00 10 1027.7
20260501232929 6 135 1.6 3.2 0.00 0.00 0.00 10 1027.7
20260501232924 6 135 1.6 3.2 0.00 0.00 0.00 10 1027.7
20260501232447 6 135 3.2 3.2 0.00 0.00 0.00 10 1027.8
20260501232010 6 135 1.6 3.2 0.00 0.00 0.00 10 1027.8
20260501231055 6 164 3.2 3.2 0.00 0.00 0.00 10 1027.9
20260501230624 6 197 1.6 3.2 0.00 0.00 0.00 10 1027.9
20260501230618 6 197 1.6 3.2 0.00 0.00 0.00 10 1027.9
20260501230147 6 161 1.6 3.2 0.00 0.00 0.00 10 1027.8
20260501225709 7 135 3.2 4.8 0.00 0.00 0.00 10 1027.8
20260501225704 7 135 3.2 4.8 0.00 0.00 0.00 10 1027.8
20260501225232 7 135 3.2 4.8 0.00 0.00 0.00 10 1027.8
20260501225227 7 135 3.2 4.8 0.00 0.00 0.00 10 1027.8
20260501224750 7 135 4.8 4.8 0.00 0.00 0.00 10 1027.8
20260501224313 7 135 3.2 4.8 0.00 0.00 0.00 10 1027.9
20260501223404 6 135 3.2 4.8 0.00 0.00 0.00 10 1028.0
20260501223359 6 135 3.2 4.8 0.00 0.00 0.00 10 1028.0
20260501222927 5 136 3.2 3.2 0.00 0.00 0.00 10 1028.0
20260501222921 5 136 3.2 3.2 0.00 0.00 0.00 10 1028.0
20260501222450 5 158 3.2 3.2 0.00 0.00 0.00 10 1028.0
20260501222444 5 158 3.2 3.2 0.00 0.00 0.00 10 1028.0
20260501221530 5 135 1.6 3.2 0.00 0.00 0.00 10 1028.0
20260501220621 6 135 3.2 3.2 0.00 0.00 0.00 10 1028.1
20260501220616 6 135 3.2 3.2 0.00 0.00 0.00 10 1028.1
20260501215707 5 135 3.2 3.2 0.00 0.00 0.00 10 1028.2
20260501215702 5 135 3.2 3.2 0.00 0.00 0.00 10 1028.2
20260501215230 5 158 3.2 3.2 0.00 0.00 0.00 10 1028.2
20260501215225 5 158 3.2 3.2 0.00 0.00 0.00 10 1028.2
20260501214748 5 180 1.6 3.2 0.00 0.00 0.00 10 1028.1
20260501214311 5 162 1.6 3.2 0.00 0.00 0.00 10 1028.1
20260501213834 5 148 1.6 3.2 0.00 0.00 0.00 10 1028.1
20260501213356 5 135 3.2 3.2 0.00 0.00 0.00 10 1028.0
20260501212919 5 141 3.2 3.2 0.00 0.00 0.00 10 1028.0
20260501212010 5 167 3.2 3.2 0.00 0.00 0.00 10 1027.9
20260501212005 5 167 3.2 3.2 0.00 0.00 0.00 10 1027.9
20260501211533 5 135 3.2 3.2 0.00 0.00 0.00 10 1027.9
20260501211528 5 135 3.2 3.2 0.00 0.00 0.00 10 1027.9
20260501211056 6 135 1.6 3.2 0.00 0.00 0.00 10 1027.9
20260501211051 6 135 1.6 3.2 0.00 0.00 0.00 10 1027.9
20260501210619 6 139 3.2 3.2 0.00 0.00 0.00 10 1027.9
20260501210614 6 139 3.2 3.2 0.00 0.00 0.00 10 1027.9
20260501210137 7 139 3.2 3.2 0.00 0.00 0.00 10 1027.9
20260501205700 7 138 3.2 3.2 0.00 0.00 0.00 10 1027.8
20260501205228 7 135 1.6 3.2 0.00 0.00 0.00 10 1027.9
20260501205222 7 135 1.6 3.2 0.00 0.00 0.00 10 1027.9
20260501204746 7 135 1.6 3.2 0.00 0.00 0.00 10 1027.9
20260501204313 7 156 3.2 3.2 0.00 0.00 0.00 10 1027.8
20260501204308 7 156 3.2 3.2 0.00 0.00 0.00 10 1027.8
20260501203354 6 148 1.6 3.2 0.00 0.00 0.00 10 1027.9
20260501202917 6 150 1.6 1.6 0.00 0.00 0.00 10 1027.9
20260501202440 6 148 1.6 3.2 0.00 0.00 0.00 10 1027.8
20260501201531 6 161 1.6 3.2 0.00 0.00 0.00 10 1027.9
20260501201525 6 161 1.6 3.2 0.00 0.00 0.00 10 1027.9
20260501201053 6 170 1.6 3.2 0.00 0.00 0.00 10 1027.9
20260501201048 6 170 1.6 3.2 0.00 0.00 0.00 10 1027.9
20260501200616 6 135 1.6 3.2 0.00 0.00 0.00 10 1027.8
20260501200611 6 135 1.6 3.2 0.00 0.00 0.00 10 1027.8